[[{"header":{"parameterUnit":"m.s-1","parameterCategory":1,"la1":30.2991,"la2":30.254,"lo1":-89.0895,"lo2":-89.0444,"dy":0.0017,"dx":0.0017,"nx":28,"ny":28,"refTime":"2025-08-04T03:00:00:Z","depth":0,"parameterNumber":2,"parameterNumberName":"U-component_of_WINDS"},"data":[0,0,0,0,0,0,0,0,0,0,0,0,0,0,0,0,0,0,0,0,0,0,0,0,0,0,0,0,0,0,0,0,0,0,0,0,0,0,0,0,0,0,0,0,0,0,0,0,0,0,0,0,0,0,0,0,0,0,-3.7019,-3.7019,0,-3.7005,-3.7005,-3.7005,-3.6921,-3.6919,-3.6917,-3.6915,-3.6902,-3.6903,-3.6905,0,0,0,0,0,0,0,0,0,0,0,0,0,-3.6974,-3.6975,-3.7019,-3.7019,-3.7019,-3.7005,-3.7005,-3.7005,-3.6921,-3.6919,-3.6916,-3.6914,-3.6901,-3.6903,-3.6905,0,0,0,0,0,0,0,0,0,0,0,0,0,-3.698,-3.6975,-3.7019,-3.6975,-3.6971,-3.7005,-3.7005,-3.7005,-3.6922,-3.6919,-3.6916,-3.6913,-3.6901,-3.6903,-3.6905,-3.6981,0,0,-3.6913,-3.6914,0,0,0,0,0,0,0,0,-3.698,-3.6982,-3.6982,-3.6978,-3.6974,-3.6962,-3.6984,-3.6997,-3.6922,-3.6941,-3.6915,-3.6911,-3.6924,-3.6925,-3.6929,-3.6981,-3.698,-3.6913,-3.6914,-3.6915,-3.6916,0,0,0,0,0,0,0,-3.6979,-3.6982,-3.7014,-3.6982,-3.6977,-3.6957,-3.6954,-3.6986,-3.695,-3.6939,-3.6933,-3.6932,-3.6922,-3.6927,-3.6928,-3.698,-3.6913,-3.6915,-3.6916,-3.6917,-3.7091,-3.7094,0,0,0,0,0,0,-3.6985,-3.6982,-3.7014,-3.7013,-3.6969,-3.696,-3.6957,-3.6969,-3.6949,-3.6943,-3.6935,-3.6928,-3.6924,-3.6925,-3.6927,-3.7013,-3.6915,-3.6917,-3.6919,-3.7088,-3.7092,-3.7096,0,0,0,0,0,0,-3.6984,-3.6989,-3.7015,-3.6996,-3.6998,-3.6964,-3.6978,-3.697,-3.6975,-3.6946,-3.6939,-3.6946,-3.6922,-3.6924,-3.6968,-3.7011,-3.6918,-3.6921,-3.7084,-3.7089,-3.7094,-3.7186,0,0,0,0,0,0,-3.6983,-3.6989,-3.7017,-3.6997,-3.6999,-3.7056,-3.698,-3.6972,-3.6979,-3.697,-3.6955,-3.695,-3.692,-3.6965,-3.697,-3.7013,-3.6922,-3.708,-3.7087,-3.7092,-3.7179,-3.7194,-3.7206,0,0,0,0,0,-3.6982,-3.7044,-3.7019,-3.7023,-3.7034,-3.7058,-3.7059,-3.7023,-3.6983,-3.7011,-3.6992,-3.695,-3.7006,-3.697,-3.6975,-3.7019,-3.7077,-3.7085,-3.7092,-3.7173,-3.7191,-3.7206,0,0,0,0,0,0,-3.7071,-3.7041,-3.7013,-3.707,-3.7067,-3.7044,-3.7078,-3.7043,-3.7052,-3.7043,-3.6998,-3.6995,-3.7046,-3.7037,-3.6998,-3.7091,-3.7034,-3.7043,-3.7094,-3.7111,-3.7124,-3.7124,-3.6924,0,0,0,0,0,-3.7097,-3.712,-3.7092,-3.7146,-3.7146,-3.7113,-3.7122,-3.7094,-3.7089,-3.7088,-3.7073,-3.707,-3.7087,-3.7099,-3.7113,-3.7178,-3.7173,-3.7211,-3.7224,-3.7236,-3.7243,-3.7276,-3.7292,-3.7119,-3.7119,-3.7119,0,0,-3.7152,-3.7138,-3.7155,-3.7163,-3.7158,-3.7182,-3.7112,-3.7141,-3.7158,-3.7092,-3.7132,-3.7121,-3.7115,-3.717,-3.7194,-3.7165,-3.729,-3.7245,-3.7254,-3.7255,-3.7285,-3.7301,-3.7316,-3.7124,-3.7123,-3.7123,0,0,-3.7263,-3.7256,-3.7298,-3.7294,-3.7286,-3.7264,-3.7274,-3.7256,-3.7246,-3.7285,-3.7236,-3.7257,-3.7287,-3.7284,-3.7287,-3.7397,-3.7358,-3.7403,-3.7472,-3.7505,-3.7518,-3.753,-3.7568,-3.7582,-3.7411,-3.7411,-3.7411,0,-3.7332,-3.7366,-3.7325,-3.7356,-3.7361,-3.7302,-3.7345,-3.7343,-3.7341,-3.7346,-3.7313,-3.7349,-3.7341,-3.7394,-3.742,-3.7425,-3.7435,-3.7403,-3.752,-3.7531,-3.7541,-3.7577,-3.7591,-3.7416,-3.7416,-3.7415,-3.7415,0,-3.745,-3.7474,-3.751,-3.7507,-3.7516,-3.7554,-3.7519,-3.7533,-3.7504,-3.7485,-3.7526,-3.7514,-3.7524,-3.7535,-3.7508,-3.7584,-3.7566,-3.7528,-3.7469,-3.7564,-3.7596,-3.761,-3.7424,-3.7422,-3.742,-3.7419,0,0,-3.7616,-3.7591,-3.7604,-3.7602,-3.7589,-3.7607,-3.7641,-3.765,-3.7662,-3.7663,-3.769,-3.7717,-3.7681,-3.7684,-3.7656,-3.7685,-3.7771,-3.7643,-3.7642,-3.7666,-3.7852,-3.788,-3.7896,-3.7746,-3.7749,-3.7751,-3.7852,0,-3.7721,-3.7777,-3.7742,-3.7804,-3.7825,-3.7769,-3.7799,-3.7795,-3.7778,-3.7794,-3.7775,-3.7794,-3.7746,-3.7747,-3.7774,-3.7755,-3.7808,-3.7748,-3.777,-3.7772,-3.7772,-3.7914,-3.7943,-3.804,-3.7865,-3.7867,-3.7869,0,-3.7851,-3.7856,-3.7919,-3.7901,-3.7908,-3.7936,-3.794,-3.7957,-3.795,-3.7936,-3.794,-3.7904,-3.7937,-3.7881,-3.7925,-3.7885,-3.7892,-3.7885,-3.7887,-3.7887,-3.7825,-3.7915,-3.807,-3.8084,-3.7889,-3.7887,-3.7886,0,-3.7964,-3.7986,-3.8027,-3.8027,-3.8007,-3.8027,-3.802,-3.801,-3.8018,-3.8022,-3.8026,-3.8036,-3.804,-3.8048,-3.8016,-3.7979,-3.8064,-3.8006,-3.8052,-3.8053,-3.8071,-3.807,-3.8227,-3.8079,-3.8079,-3.8079,-3.8079,0,-3.8084,-3.8124,-3.8077,-3.8102,-3.8145,-3.8105,-3.8149,-3.8136,-3.8128,-3.815,-3.8103,-3.8124,-3.8082,-3.8099,-3.8074,-3.8113,-3.8117,-3.8106,-3.8098,-3.8109,-3.811,-3.8112,-3.8104,-3.8083,-3.8082,-3.8081,-3.8081,0,-3.8216,-3.8186,-3.8226,-3.8204,-3.8199,-3.8232,-3.8213,-3.8235,-3.8215,-3.8243,-3.8247,-3.8216,-3.8233,-3.8203,-3.8217,-3.82,-3.8255,-3.8238,-3.8256,-3.8251,-3.8298,-3.8294,-3.8461,-3.848,-3.8322,-3.8323,-3.8325,0,-3.8294,-3.8323,-3.8304,-3.8314,-3.8309,-3.8327,-3.8334,-3.8295,-3.8304,-3.8299,-3.8322,-3.8335,-3.8343,-3.8374,-3.8353,-3.8363,-3.8345,-3.8403,-3.8347,-3.8356,-3.8344,-3.8342,-3.8344,-3.8414,-3.8416,-3.8418,-3.8419,0,-3.8434,-3.8418,-3.8429,-3.8435,-3.8444,-3.8447,-3.8447,-3.8459,-3.8417,-3.843,-3.8447,-3.8453,-3.8467,-3.8481,-3.8486,-3.8479,-3.8442,-3.8437,-3.8448,-3.8458,-3.8467,-3.8461,-3.8286,-3.8433,-3.8432,-3.8431,-3.843,-3.843,-3.8541,-3.8564,-3.8553,-3.8567,-3.8562,-3.8563,-3.8582,-3.8564,-3.8577,-3.8584,-3.8561,-3.8583,-3.8576,-3.8578,-3.8575,-3.8592,-3.8566,-3.8583,-3.8587,-3.8591,-3.8598,-3.8466,-3.8593,-3.8593,-3.8592,-3.8592,-3.8592,0,-3.8677,-3.8667,-3.868,-3.8681,-3.8692,-3.8656,-3.8654,-3.8665,-3.8685,-3.868,-3.8689,-3.8708,-3.8721,-3.8701,-3.8711,-3.8728,-3.8712,-3.8732,-3.8729,-3.8728,-3.8621,-3.8609,-3.8745,-3.8745,-3.8745,-3.8745,-3.8745,-3.8745,-3.8749,-3.8786,-3.8768,-3.8802,-3.8792,-3.8812,-3.8814,-3.8814,-3.881,-3.8833,-3.8843,-3.883,-3.8819,-3.8828,-3.8838,-3.8832,-3.8837,-3.8863,-3.8851,-3.8751,-3.8736,-3.8721,-3.871,-3.8864,-3.8865,-3.8956,-3.8957,-3.8957]},{"header":{"parameterUnit":"m.s-1","parameterCategory":1,"la1":30.2991,"la2":30.254,"lo1":-89.0895,"lo2":-89.0444,"dy":0.0017,"dx":0.0017,"nx":28,"ny":28,"refTime":"2025-08-04T03:00:00:Z","depth":0,"parameterNumber":3,"parameterNumberName":"V-component_of_WINDS"},"data":[0,0,0,0,0,0,0,0,0,0,0,0,0,0,0,0,0,0,0,0,0,0,0,0,0,0,0,0,0,0,0,0,0,0,0,0,0,0,0,0,0,0,0,0,0,0,0,0,0,0,0,0,0,0,0,0,0,0,-0.4405,-0.4405,0,-0.4424,-0.4424,-0.4424,-0.4411,-0.441,-0.4409,-0.4409,-0.4433,-0.4434,-0.4435,0,0,0,0,0,0,0,0,0,0,0,0,0,-0.4363,-0.4364,-0.4405,-0.4405,-0.4405,-0.4424,-0.4424,-0.4424,-0.4411,-0.441,-0.4409,-0.4409,-0.4432,-0.4434,-0.4435,0,0,0,0,0,0,0,0,0,0,0,0,0,-0.4381,-0.4364,-0.4405,-0.4401,-0.44,-0.4423,-0.4424,-0.4424,-0.4411,-0.441,-0.4409,-0.4408,-0.4432,-0.4434,-0.4435,-0.4465,0,0,-0.4441,-0.4442,0,0,0,0,0,0,0,0,-0.438,-0.4383,-0.4401,-0.4401,-0.4401,-0.4414,-0.4418,-0.4438,-0.4411,-0.4407,-0.4409,-0.4408,-0.4427,-0.443,-0.4435,-0.4466,-0.4467,-0.4441,-0.4442,-0.4443,-0.4443,0,0,0,0,0,0,0,-0.4379,-0.4382,-0.4412,-0.4401,-0.4401,-0.44,-0.4401,-0.4422,-0.4422,-0.4407,-0.4406,-0.4409,-0.4427,-0.4434,-0.4436,-0.4467,-0.4441,-0.4443,-0.4444,-0.4444,-0.4525,-0.4526,0,0,0,0,0,0,-0.4377,-0.4381,-0.4412,-0.4413,-0.4388,-0.4401,-0.4403,-0.4411,-0.4422,-0.4423,-0.4409,-0.4408,-0.4431,-0.4434,-0.4437,-0.4472,-0.4443,-0.4445,-0.4446,-0.4524,-0.4525,-0.4527,0,0,0,0,0,0,-0.4377,-0.438,-0.4411,-0.4397,-0.44,-0.4403,-0.4412,-0.4411,-0.4418,-0.4423,-0.4424,-0.4415,-0.443,-0.4434,-0.4458,-0.4473,-0.4445,-0.4447,-0.4523,-0.4525,-0.4526,-0.4544,0,0,0,0,0,0,-0.4375,-0.438,-0.439,-0.4397,-0.4401,-0.443,-0.4412,-0.4412,-0.442,-0.4418,-0.4429,-0.443,-0.443,-0.4455,-0.446,-0.4475,-0.4448,-0.4522,-0.4524,-0.4526,-0.4542,-0.4546,-0.4549,0,0,0,0,0,-0.4374,-0.4395,-0.439,-0.4394,-0.4413,-0.4431,-0.4434,-0.4432,-0.4421,-0.4432,-0.4436,-0.443,-0.4471,-0.4458,-0.4463,-0.4479,-0.4521,-0.4523,-0.4525,-0.454,-0.4545,-0.4549,0,0,0,0,0,0,-0.439,-0.4395,-0.4391,-0.4414,-0.4422,-0.4429,-0.4442,-0.4437,-0.4449,-0.4447,-0.4446,-0.4448,-0.4474,-0.4479,-0.4464,-0.4509,-0.4494,-0.4498,-0.4504,-0.4509,-0.4512,-0.451,-0.445,0,0,0,0,0,-0.4396,-0.4409,-0.4413,-0.4434,-0.4438,-0.4439,-0.4447,-0.4445,-0.4454,-0.4458,-0.4463,-0.4474,-0.4489,-0.45,-0.4514,-0.4543,-0.4546,-0.4557,-0.4561,-0.4564,-0.4566,-0.4584,-0.4589,-0.4534,-0.4534,-0.4534,0,0,-0.4409,-0.4414,-0.4422,-0.4437,-0.4443,-0.4458,-0.4442,-0.4458,-0.447,-0.4461,-0.4483,-0.4488,-0.45,-0.4527,-0.4539,-0.4532,-0.4583,-0.4567,-0.4569,-0.457,-0.4587,-0.4592,-0.4597,-0.4536,-0.4536,-0.4536,0,0,-0.444,-0.4444,-0.4462,-0.4468,-0.4477,-0.4479,-0.4483,-0.4491,-0.4494,-0.4516,-0.451,-0.4525,-0.4551,-0.456,-0.4568,-0.4605,-0.46,-0.461,-0.4629,-0.4646,-0.465,-0.4654,-0.4668,-0.4673,-0.4613,-0.4613,-0.4613,0,-0.4455,-0.4475,-0.4472,-0.4488,-0.4496,-0.4488,-0.4507,-0.4514,-0.4528,-0.4535,-0.4526,-0.456,-0.4567,-0.4597,-0.4606,-0.4613,-0.4619,-0.4608,-0.4649,-0.4653,-0.4657,-0.467,-0.4675,-0.4614,-0.4614,-0.4614,-0.4614,0,-0.4494,-0.4508,-0.4522,-0.4534,-0.4544,-0.4562,-0.4563,-0.4573,-0.4571,-0.4574,-0.4598,-0.4607,-0.4624,-0.4631,-0.4629,-0.4661,-0.4657,-0.4649,-0.4634,-0.4663,-0.4676,-0.4681,-0.4616,-0.4615,-0.4615,-0.4615,0,0,-0.4534,-0.4545,-0.455,-0.4556,-0.4567,-0.4579,-0.4598,-0.4612,-0.4622,-0.4633,-0.4649,-0.4673,-0.4666,-0.4675,-0.4675,-0.469,-0.472,-0.4681,-0.4681,-0.4688,-0.4757,-0.4762,-0.4768,-0.4717,-0.4718,-0.4719,-0.4756,0,-0.4565,-0.4595,-0.4594,-0.4623,-0.4637,-0.4631,-0.4647,-0.4657,-0.4661,-0.4675,-0.468,-0.4697,-0.4687,-0.4692,-0.4707,-0.4713,-0.4734,-0.4711,-0.4734,-0.4735,-0.4731,-0.4774,-0.478,-0.4814,-0.4761,-0.4762,-0.4763,0,-0.4605,-0.4616,-0.4646,-0.4656,-0.4662,-0.4676,-0.4691,-0.4704,-0.4716,-0.4718,-0.4729,-0.4727,-0.4748,-0.4734,-0.4764,-0.4749,-0.4759,-0.4764,-0.4765,-0.4767,-0.475,-0.4778,-0.4825,-0.483,-0.477,-0.4769,-0.4769,0,-0.4631,-0.4654,-0.4675,-0.4681,-0.4692,-0.4703,-0.4709,-0.4719,-0.4729,-0.4743,-0.475,-0.4767,-0.4776,-0.479,-0.4794,-0.4782,-0.4825,-0.481,-0.4828,-0.4828,-0.4836,-0.4836,-0.4886,-0.4844,-0.4844,-0.4844,-0.4843,0,-0.4666,-0.4685,-0.4687,-0.47,-0.4722,-0.4721,-0.4744,-0.4749,-0.4759,-0.4774,-0.4771,-0.4786,-0.479,-0.4807,-0.4811,-0.4836,-0.484,-0.4844,-0.4844,-0.4844,-0.4843,-0.485,-0.4847,-0.4845,-0.4845,-0.4844,-0.4844,0,-0.4698,-0.47,-0.4723,-0.4732,-0.4735,-0.4751,-0.476,-0.4774,-0.4778,-0.4798,-0.4803,-0.481,-0.483,-0.4835,-0.4859,-0.4861,-0.4892,-0.489,-0.4887,-0.4887,-0.4905,-0.4903,-0.4961,-0.4969,-0.4921,-0.4922,-0.4922,0,-0.472,-0.4734,-0.4745,-0.4754,-0.476,-0.4775,-0.4785,-0.4787,-0.4798,-0.4813,-0.4826,-0.4845,-0.486,-0.4892,-0.4901,-0.492,-0.4919,-0.4938,-0.4922,-0.4921,-0.492,-0.4919,-0.4921,-0.4941,-0.4941,-0.4942,-0.4942,0,-0.4758,-0.4759,-0.4772,-0.4786,-0.4798,-0.4809,-0.4821,-0.4829,-0.4833,-0.4846,-0.4865,-0.4877,-0.4902,-0.4921,-0.4941,-0.4949,-0.4947,-0.4947,-0.4953,-0.4952,-0.4949,-0.4951,-0.4895,-0.4946,-0.4945,-0.4945,-0.4945,-0.4945,-0.4785,-0.4798,-0.4808,-0.4823,-0.4832,-0.4843,-0.4857,-0.4863,-0.4878,-0.4897,-0.4898,-0.4919,-0.4934,-0.4959,-0.4969,-0.4988,-0.4982,-0.499,-0.4992,-0.4993,-0.4995,-0.4947,-0.4991,-0.4991,-0.4991,-0.4991,-0.4991,0,-0.4823,-0.483,-0.4844,-0.4859,-0.4873,-0.4868,-0.4881,-0.4893,-0.4911,-0.4924,-0.4939,-0.4962,-0.4982,-0.4993,-0.5013,-0.5026,-0.5026,-0.5032,-0.503,-0.5033,-0.4998,-0.4992,-0.5032,-0.5032,-0.5032,-0.5032,-0.5032,-0.5032,-0.4844,-0.4866,-0.4868,-0.4895,-0.4902,-0.4921,-0.4929,-0.4941,-0.4951,-0.4976,-0.4992,-0.4999,-0.5012,-0.5033,-0.5052,-0.5055,-0.5063,-0.5069,-0.5072,-0.5039,-0.5035,-0.5031,-0.5025,-0.5071,-0.5071,-0.5105,-0.5105,-0.5105]}]]